Find Starlink 30510

NORAD ID: 57981 Int'l Des: 2023-151 Owner: SPXS Country: US Constellation: starlink operational
LEOCIRCULAR

实时位置

正在加载3D地球...

关于 Starlink 30510

正在加载描述...

即将过境

Passes for default location (London). Set your location on the main map for personalized predictions.

高度历史

Loading altitude history...

两行轨道根数

1 57981U 23151T 26123.79894757 -.00002454 00000-0 -79718-4 0 9995
2 57981 43.0014 42.6849 0001746 273.2596 86.8056 15.27558667143989
Epoch: May 3, 2026 • Age: 6 hours

当前状态

高度 483.7 km
速度 7.62 km/s
星下点 -5.73°S, 4.95°W
发射日期 Sep 30, 2023
运行时间 2.5 years
类型 internet

技术详情

分类 Payload
质量 730.00 kg
干质量 700.00 kg
总质量 730.00 kg
长度 0.30 m
直径 4.10 m
跨度 29.00 m
形状 Box + pan
制造商 SPXS
平台类型 Starlink V2M
阶段状态 In Orbit
所有者/国家 SPXS/US

Most Searched